Time,TemperatureF,DewpointF,PressureIn,WindDirection,WindDirectionDegrees,WindSpeedMPH,WindSpeedGustMPH,Humidity,HourlyPrecipIn,Conditions,Clouds,dailyrainin,SoftwareType,DateUTC
2013-07-21 00:00:00,64.0,47.0,29.85,SW,229,9.0,9.0,54,0.00,CLR,CLR,0.00,WeatherDisplay:10.34,2013-07-21 06:00:00,
2013-07-21 00:05:00,63.8,46.3,29.85,SW,225,8.0,8.0,53,0.00,CLR,CLR,0.00,WeatherDisplay:10.34,2013-07-21 06:05:00,
2013-07-21 00:10:00,63.9,46.9,29.85,SW,232,7.0,7.0,54,0.00,CLR,CLR,0.00,WeatherDisplay:10.34,2013-07-21 06:10:00,
2013-07-21 00:15:00,64.0,46.5,29.85,SW,224,7.0,8.0,53,0.00,CLR,CLR,0.00,WeatherDisplay:10.34,2013-07-21 06:15:00,
2013-07-21 00:20:00,64.1,46.6,29.84,SW,228,5.0,5.0,53,0.00,CLR,CLR,0.00,WeatherDisplay:10.34,2013-07-21 06:20:00,
2013-07-21 00:25:00,64.2,46.2,29.84,SW,220,5.0,7.0,52,0.00,CLR,CLR,0.00,WeatherDisplay:10.34,2013-07-21 06:25:00,
2013-07-21 00:30:00,64.3,47.3,29.84,SW,217,4.0,4.0,54,0.00,CLR,CLR,0.00,WeatherDisplay:10.34,2013-07-21 06:30:00,
2013-07-21 00:35:00,64.3,46.3,29.84,SW,222,6.0,9.0,52,0.00,CLR,CLR,0.00,WeatherDisplay:10.34,2013-07-21 06:35:00,
2013-07-21 00:40:00,64.4,46.4,29.85,SW,229,6.0,6.0,52,0.00,CLR,CLR,0.00,WeatherDisplay:10.34,2013-07-21 06:40:00,
2013-07-21 00:45:00,64.4,46.4,29.85,SW,232,7.0,8.0,52,0.00,CLR,CLR,0.00,WeatherDisplay:10.34,2013-07-21 06:45:00,
2013-07-21 00:50:00,64.4,46.4,29.85,SW,226,9.0,9.0,52,0.00,CLR,CLR,0.00,WeatherDisplay:10.34,2013-07-21 06:50:00,
2013-07-21 00:55:00,64.4,46.4,29.85,SW,234,7.0,7.0,52,0.00,CLR,CLR,0.00,WeatherDisplay:10.34,2013-07-21 06:55:00,
2013-07-21 01:00:00,64.4,46.4,29.84,SW,221,6.0,7.0,52,0.00,CLR,CLR,0.00,WeatherDisplay:10.34,2013-07-21 07:00:00,
2013-07-21 01:05:00,64.3,46.3,29.84,WSW,242,7.0,7.0,52,0.00,CLR,CLR,0.00,WeatherDisplay:10.34,2013-07-21 07:05:00,
2013-07-21 01:10:00,64.2,46.7,29.84,SW,234,6.0,8.0,53,0.00,CLR,CLR,0.00,WeatherDisplay:10.34,2013-07-21 07:10:00,
2013-07-21 01:15:00,63.9,46.4,29.84,WSW,242,7.0,8.0,53,0.00,CLR,CLR,0.00,WeatherDisplay:10.34,2013-07-21 07:15:00,
2013-07-21 01:20:00,63.7,46.2,29.84,WSW,251,7.0,7.0,53,0.00,CLR,CLR,0.00,WeatherDisplay:10.34,2013-07-21 07:20:00,
2013-07-21 01:25:00,63.5,46.1,29.84,SW,232,8.0,9.0,53,0.00,CLR,CLR,0.00,WeatherDisplay:10.34,2013-07-21 07:25:00,
2013-07-21 01:30:00,63.3,46.4,29.84,WSW,237,8.0,9.0,54,0.00,CLR,CLR,0.00,WeatherDisplay:10.34,2013-07-21 07:30:00,
2013-07-21 01:35:00,63.1,45.7,29.83,WSW,244,8.0,8.0,53,0.00,CLR,CLR,0.00,WeatherDisplay:10.34,2013-07-21 07:35:00,
2013-07-21 01:40:00,63.2,45.8,29.83,WSW,247,7.0,7.0,53,0.00,CLR,CLR,0.00,WeatherDisplay:10.34,2013-07-21 07:40:00,
2013-07-21 01:45:00,63.3,46.4,29.84,SSW,213,5.0,7.0,54,0.00,CLR,CLR,0.00,WeatherDisplay:10.34,2013-07-21 07:45:00,
2013-07-21 01:50:00,63.2,46.3,29.84,SW,219,7.0,7.0,54,0.00,CLR,CLR,0.00,WeatherDisplay:10.34,2013-07-21 07:50:00,
2013-07-21 01:55:00,63.0,46.1,29.84,SW,225,9.0,9.0,54,0.00,CLR,CLR,0.00,WeatherDisplay:10.34,2013-07-21 07:55:00,
2013-07-21 02:00:00,62.9,46.0,29.84,SW,233,7.0,8.0,54,0.00,CLR,CLR,0.00,WeatherDisplay:10.34,2013-07-21 08:00:00,
2013-07-21 02:05:00,62.7,45.8,29.84,SW,229,7.0,7.0,54,0.00,CLR,CLR,0.00,WeatherDisplay:10.34,2013-07-21 08:05:00,
2013-07-21 02:10:00,62.5,45.6,29.84,SW,234,5.0,5.0,54,0.00,CLR,CLR,0.00,WeatherDisplay:10.34,2013-07-21 08:10:00,
2013-07-21 02:15:00,62.4,45.5,29.84,WSW,240,10.0,10.0,54,0.00,CLR,CLR,0.00,WeatherDisplay:10.34,2013-07-21 08:15:00,
2013-07-21 02:20:00,62.3,45.4,29.84,SW,232,10.0,10.0,54,0.00,CLR,CLR,0.00,WeatherDisplay:10.34,2013-07-21 08:20:00,
2013-07-21 02:25:00,62.3,45.4,29.84,SW,232,7.0,7.0,54,0.00,CLR,CLR,0.00,WeatherDisplay:10.34,2013-07-21 08:25:00,
2013-07-21 02:30:00,62.4,45.5,29.83,SW,229,6.0,6.0,54,0.00,CLR,CLR,0.00,WeatherDisplay:10.34,2013-07-21 08:30:00,
2013-07-21 02:35:00,62.5,45.1,29.83,SW,227,7.0,7.0,53,0.00,CLR,CLR,0.00,WeatherDisplay:10.34,2013-07-21 08:35:00,
2013-07-21 02:40:00,62.6,45.2,29.83,SW,234,8.0,9.0,53,0.00,CLR,CLR,0.00,WeatherDisplay:10.34,2013-07-21 08:40:00,
2013-07-21 02:45:00,62.7,45.3,29.83,SW,232,8.0,8.0,53,0.00,CLR,CLR,0.00,WeatherDisplay:10.34,2013-07-21 08:45:00,
2013-07-21 02:50:00,62.8,45.9,29.83,WSW,247,8.0,8.0,54,0.00,CLR,CLR,0.00,WeatherDisplay:10.34,2013-07-21 08:50:00,
2013-07-21 02:55:00,62.7,45.8,29.82,SW,227,6.0,7.0,54,0.00,CLR,CLR,0.00,WeatherDisplay:10.34,2013-07-21 08:55:00,
2013-07-21 03:00:00,62.6,45.7,29.82,SW,222,8.0,8.0,54,0.00,CLR,CLR,0.00,WeatherDisplay:10.34,2013-07-21 09:00:00,
2013-07-21 03:05:00,62.6,45.7,29.82,SW,234,6.0,7.0,54,0.00,CLR,CLR,0.00,WeatherDisplay:10.34,2013-07-21 09:05:00,
2013-07-21 03:10:00,62.5,45.6,29.82,SW,223,8.0,8.0,54,0.00,CLR,CLR,0.00,WeatherDisplay:10.34,2013-07-21 09:10:00,
2013-07-21 03:15:00,62.4,45.5,29.82,SW,219,7.0,8.0,54,0.00,CLR,CLR,0.00,WeatherDisplay:10.34,2013-07-21 09:15:00,
2013-07-21 03:20:00,62.3,45.4,29.82,SW,223,4.0,5.0,54,0.00,CLR,CLR,0.00,WeatherDisplay:10.34,2013-07-21 09:20:00,
2013-07-21 03:25:00,62.2,45.3,29.82,SSW,211,1.0,2.0,54,0.00,CLR,CLR,0.00,WeatherDisplay:10.34,2013-07-21 09:25:00,
2013-07-21 03:30:00,61.9,45.5,29.82,SSW,211,6.0,6.0,55,0.00,CLR,CLR,0.00,WeatherDisplay:10.34,2013-07-21 09:30:00,
2013-07-21 03:35:00,61.5,45.7,29.82,SE,145,6.0,7.0,56,0.00,CLR,CLR,0.00,WeatherDisplay:10.34,2013-07-21 09:35:00,
2013-07-21 03:40:00,60.9,46.0,29.82,SSW,213,5.0,5.0,58,0.00,CLR,CLR,0.00,WeatherDisplay:10.34,2013-07-21 09:40:00,
2013-07-21 03:45:00,60.5,46.1,29.83,SE,128,13.0,13.0,59,0.00,CLR,CLR,0.00,WeatherDisplay:10.34,2013-07-21 09:45:00,
2013-07-21 03:50:00,60.2,46.3,29.83,ESE,118,9.0,9.0,60,0.00,CLR,CLR,0.00,WeatherDisplay:10.34,2013-07-21 09:50:00,
2013-07-21 03:55:00,60.0,46.1,29.83,South,184,3.0,3.0,60,0.00,CLR,CLR,0.00,WeatherDisplay:10.34,2013-07-21 09:55:00,
2013-07-21 04:00:00,59.9,46.4,29.83,SSW,199,5.0,5.0,61,0.00,CLR,CLR,0.00,WeatherDisplay:10.34,2013-07-21 10:00:00,
2013-07-21 04:05:00,59.8,46.7,29.83,SSW,199,1.0,2.0,62,0.00,CLR,CLR,0.00,WeatherDisplay:10.34,2013-07-21 10:05:00,
2013-07-21 04:10:00,59.7,46.7,29.83,SSW,199,1.0,1.0,62,0.00,CLR,CLR,0.00,WeatherDisplay:10.34,2013-07-21 10:10:00,
2013-07-21 04:15:00,59.4,46.4,29.83,SSW,211,1.0,3.0,62,0.00,CLR,CLR,0.00,WeatherDisplay:10.34,2013-07-21 10:15:00,
2013-07-21 04:20:00,59.3,45.4,29.82,SW,232,8.0,9.0,60,0.00,CLR,CLR,0.00,WeatherDisplay:10.34,2013-07-21 10:20:00,
2013-07-21 04:25:00,59.6,45.2,29.82,WSW,238,8.0,8.0,59,0.00,CLR,CLR,0.00,WeatherDisplay:10.34,2013-07-21 10:25:00,
2013-07-21 04:30:00,60.0,45.6,29.82,WSW,248,8.0,8.0,59,0.00,CLR,CLR,0.00,WeatherDisplay:10.34,2013-07-21 10:30:00,
2013-07-21 04:35:00,60.3,46.4,29.82,NW,313,2.0,2.0,60,0.00,CLR,CLR,0.00,WeatherDisplay:10.34,2013-07-21 10:35:00,
2013-07-21 04:40:00,60.3,45.5,29.82,WSW,246,3.0,3.0,58,0.00,CLR,CLR,0.00,WeatherDisplay:10.34,2013-07-21 10:40:00,
2013-07-21 04:45:00,60.2,45.4,29.82,WSW,252,4.0,4.0,58,0.00,CLR,CLR,0.00,WeatherDisplay:10.34,2013-07-21 10:45:00,
2013-07-21 04:50:00,60.0,46.1,29.82,WSW,256,1.0,3.0,60,0.00,CLR,CLR,0.00,WeatherDisplay:10.34,2013-07-21 10:50:00,
2013-07-21 04:55:00,59.6,46.1,29.82,WSW,256,0.0,0.0,61,0.00,CLR,CLR,0.00,WeatherDisplay:10.34,2013-07-21 10:55:00,
2013-07-21 05:00:00,59.3,45.8,29.82,WSW,256,0.0,0.0,61,0.00,OVC,OVC,0.00,WeatherDisplay:10.34,2013-07-21 11:00:00,
2013-07-21 05:05:00,59.1,45.7,29.82,WSW,256,0.0,0.0,61,0.00,OVC,OVC,0.00,WeatherDisplay:10.34,2013-07-21 11:05:00,
2013-07-21 05:10:00,59.0,46.0,29.82,South,190,1.0,2.0,62,0.00,OVC,OVC,0.00,WeatherDisplay:10.34,2013-07-21 11:10:00,
2013-07-21 05:15:00,58.6,46.5,29.82,South,190,2.0,2.0,64,0.00,OVC,OVC,0.00,WeatherDisplay:10.34,2013-07-21 11:15:00,
2013-07-21 05:20:00,58.2,46.5,29.82,South,190,1.0,1.0,65,0.00,OVC,OVC,0.00,WeatherDisplay:10.34,2013-07-21 11:20:00,
2013-07-21 05:25:00,57.9,46.2,29.82,South,190,1.0,2.0,65,0.00,OVC,OVC,0.00,WeatherDisplay:10.34,2013-07-21 11:25:00,
2013-07-21 05:30:00,57.5,45.8,29.82,South,190,0.0,0.0,65,0.00,OVC,OVC,0.00,WeatherDisplay:10.34,2013-07-21 11:30:00,
2013-07-21 05:35:00,57.2,45.9,29.82,South,190,2.0,2.0,66,0.00,OVC,OVC,0.00,WeatherDisplay:10.34,2013-07-21 11:35:00,
2013-07-21 05:40:00,57.0,45.7,29.82,South,191,4.0,4.0,66,0.00,OVC,OVC,0.00,WeatherDisplay:10.34,2013-07-21 11:40:00,
2013-07-21 05:45:00,56.9,45.7,29.82,WSW,246,3.0,3.0,66,0.00,OVC,OVC,0.00,WeatherDisplay:10.34,2013-07-21 11:45:00,
2013-07-21 05:50:00,56.8,46.0,29.82,WSW,248,5.0,5.0,67,0.00,OVC,OVC,0.00,WeatherDisplay:10.34,2013-07-21 11:50:00,
2013-07-21 05:55:00,56.8,45.6,29.82,WSW,248,0.0,0.0,66,0.00,OVC,OVC,0.00,WeatherDisplay:10.34,2013-07-21 11:55:00,
2013-07-21 06:00:00,56.8,46.0,29.82,WSW,248,0.0,0.0,67,0.00,OVC,OVC,0.00,WeatherDisplay:10.34,2013-07-21 12:00:00,
2013-07-21 06:05:00,56.6,45.8,29.82,SSW,213,3.0,3.0,67,0.00,OVC,OVC,0.00,WeatherDisplay:10.34,2013-07-21 12:05:00,
2013-07-21 06:10:00,56.5,45.7,29.84,ESE,121,0.0,0.0,67,0.00,OVC,OVC,0.00,WeatherDisplay:10.34,2013-07-21 12:10:00,
2013-07-21 06:15:00,56.4,45.6,29.84,ESE,121,0.0,0.0,67,0.00,OVC,OVC,0.00,WeatherDisplay:10.34,2013-07-21 12:15:00,
2013-07-21 06:20:00,56.4,46.0,29.84,ESE,122,0.0,0.0,68,0.00,OVC,OVC,0.00,WeatherDisplay:10.34,2013-07-21 12:20:00,
2013-07-21 06:25:00,56.4,46.0,29.84,ESE,122,0.0,1.0,68,0.00,CLR,CLR,0.00,WeatherDisplay:10.34,2013-07-21 12:25:00,
2013-07-21 06:30:00,56.4,46.4,29.83,WNW,288,3.0,3.0,69,0.00,CLR,CLR,0.00,WeatherDisplay:10.34,2013-07-21 12:30:00,
2013-07-21 06:35:00,56.6,45.4,29.83,West,267,4.0,4.0,66,0.00,CLR,CLR,0.00,WeatherDisplay:10.34,2013-07-21 12:35:00,
2013-07-21 06:40:00,56.9,45.3,29.84,West,268,2.0,2.0,65,0.00,CLR,CLR,0.00,WeatherDisplay:10.34,2013-07-21 12:40:00,
2013-07-21 06:45:00,57.2,46.7,29.84,West,268,3.0,3.0,68,0.00,CLR,CLR,0.00,WeatherDisplay:10.34,2013-07-21 12:45:00,
2013-07-21 06:50:00,57.6,46.3,29.84,WSW,244,6.0,7.0,66,0.00,SCT,SCT,0.00,WeatherDisplay:10.34,2013-07-21 12:50:00,
2013-07-21 06:55:00,58.0,45.9,29.84,West,277,7.0,8.0,64,0.00,SCT,SCT,0.00,WeatherDisplay:10.34,2013-07-21 12:55:00,
2013-07-21 07:00:00,58.6,46.0,29.84,West,276,6.0,6.0,63,0.00,CLR,CLR,0.00,WeatherDisplay:10.34,2013-07-21 13:00:00,
2013-07-21 07:05:00,59.0,46.4,29.84,West,277,0.0,0.0,63,0.00,CLR,CLR,0.00,WeatherDisplay:10.34,2013-07-21 13:05:00,
2013-07-21 07:10:00,59.5,48.9,29.85,West,277,0.0,1.0,68,0.00,CLR,CLR,0.00,WeatherDisplay:10.34,2013-07-21 13:10:00,
2013-07-21 07:15:00,59.7,48.7,29.85,West,277,0.0,0.0,67,0.00,CLR,CLR,0.00,WeatherDisplay:10.34,2013-07-21 13:15:00,
2013-07-21 07:20:00,60.0,48.6,29.85,West,277,0.0,0.0,66,0.00,CLR,CLR,0.00,WeatherDisplay:10.34,2013-07-21 13:20:00,
2013-07-21 07:25:00,60.4,50.2,29.85,West,277,1.0,1.0,69,0.00,CLR,CLR,0.00,WeatherDisplay:10.34,2013-07-21 13:25:00,
2013-07-21 07:30:00,61.0,51.1,29.85,West,277,1.0,1.0,70,0.00,CLR,CLR,0.00,WeatherDisplay:10.34,2013-07-21 13:30:00,
2013-07-21 07:35:00,61.3,49.4,29.85,West,277,1.0,0.0,65,0.00,CLR,CLR,0.00,WeatherDisplay:10.34,2013-07-21 13:35:00,
2013-07-21 07:40:00,61.8,50.3,29.85,West,268,3.0,3.0,66,0.00,CLR,CLR,0.00,WeatherDisplay:10.34,2013-07-21 13:40:00,
2013-07-21 07:45:00,62.5,51.4,29.85,West,268,0.0,0.0,67,0.00,CLR,CLR,0.00,WeatherDisplay:10.34,2013-07-21 13:45:00,
2013-07-21 07:50:00,63.2,52.5,29.85,West,267,4.0,4.0,68,0.00,CLR,CLR,0.00,WeatherDisplay:10.34,2013-07-21 13:50:00,
2013-07-21 07:55:00,64.1,49.5,29.85,West,268,4.0,4.0,59,0.00,CLR,CLR,0.00,WeatherDisplay:10.34,2013-07-21 13:55:00,
2013-07-21 08:00:00,64.8,49.7,29.85,West,268,1.0,1.0,58,0.00,CLR,CLR,0.00,WeatherDisplay:10.34,2013-07-21 14:00:00,
2013-07-21 08:05:00,65.6,49.5,29.85,West,268,1.0,1.0,56,0.00,CLR,CLR,0.00,WeatherDisplay:10.34,2013-07-21 14:05:00,
2013-07-21 08:10:00,66.6,52.7,29.85,West,261,3.0,3.0,61,0.00,CLR,CLR,0.00,WeatherDisplay:10.34,2013-07-21 14:10:00,
2013-07-21 08:15:00,67.5,52.2,29.85,West,261,2.0,2.0,58,0.00,CLR,CLR,0.00,WeatherDisplay:10.34,2013-07-21 14:15:00,
2013-07-21 08:20:00,68.2,52.9,29.86,West,261,0.0,0.0,58,0.00,CLR,CLR,0.00,WeatherDisplay:10.34,2013-07-21 14:20:00,
2013-07-21 08:25:00,69.2,52.3,29.86,West,261,1.0,0.0,55,0.00,CLR,CLR,0.00,WeatherDisplay:10.34,2013-07-21 14:25:00,
2013-07-21 08:30:00,70.4,51.9,29.86,West,261,0.0,0.0,52,0.00,CLR,CLR,0.00,WeatherDisplay:10.34,2013-07-21 14:30:00,
2013-07-21 08:35:00,71.4,52.3,29.86,West,268,3.0,3.0,51,0.00,CLR,CLR,0.00,WeatherDisplay:10.34,2013-07-21 14:35:00,
2013-07-21 08:40:00,72.2,51.4,29.86,West,268,0.0,1.0,48,0.00,CLR,CLR,0.00,WeatherDisplay:10.34,2013-07-21 14:40:00,
2013-07-21 08:45:00,73.1,50.5,29.85,West,268,0.0,1.0,45,0.00,CLR,CLR,0.00,WeatherDisplay:10.34,2013-07-21 14:45:00,
2013-07-21 08:50:00,74.0,51.3,29.85,West,268,0.0,1.0,45,0.00,CLR,CLR,0.00,WeatherDisplay:10.34,2013-07-21 14:50:00,
2013-07-21 08:55:00,74.8,52.6,29.85,West,269,0.0,0.0,46,0.00,CLR,CLR,0.00,WeatherDisplay:10.34,2013-07-21 14:55:00,
2013-07-21 09:00:00,75.5,51.4,29.85,West,268,1.0,1.0,43,0.00,CLR,CLR,0.00,WeatherDisplay:10.34,2013-07-21 15:00:00,
2013-07-21 09:05:00,76.1,50.7,29.85,NE,45,2.0,3.0,41,0.00,CLR,CLR,0.00,WeatherDisplay:10.34,2013-07-21 15:05:00,
2013-07-21 09:10:00,76.8,52.0,29.86,NE,46,2.0,3.0,42,0.00,CLR,CLR,0.00,WeatherDisplay:10.34,2013-07-21 15:10:00,
2013-07-21 09:15:00,77.3,51.1,29.86,NE,53,1.0,1.0,40,0.00,CLR,CLR,0.00,WeatherDisplay:10.34,2013-07-21 15:15:00,
2013-07-21 09:20:00,77.6,50.0,29.86,NNE,18,2.0,5.0,38,0.00,CLR,CLR,0.00,WeatherDisplay:10.34,2013-07-21 15:20:00,
2013-07-21 09:25:00,77.9,49.5,29.86,NNE,26,3.0,3.0,37,0.00,CLR,CLR,0.00,WeatherDisplay:10.34,2013-07-21 15:25:00,
2013-07-21 09:30:00,78.3,48.4,29.86,ENE,64,2.0,2.0,35,0.00,CLR,CLR,0.00,WeatherDisplay:10.34,2013-07-21 15:30:00,
2013-07-21 09:35:00,78.7,48.7,29.86,ENE,63,1.0,1.0,35,0.00,CLR,CLR,0.00,WeatherDisplay:10.34,2013-07-21 15:35:00,
2013-07-21 09:40:00,79.1,48.3,29.86,ESE,121,2.0,2.0,34,0.00,CLR,CLR,0.00,WeatherDisplay:10.34,2013-07-21 15:40:00,
2013-07-21 09:45:00,79.2,49.2,29.86,ESE,121,1.0,2.0,35,0.00,CLR,CLR,0.00,WeatherDisplay:10.34,2013-07-21 15:45:00,
2013-07-21 09:50:00,79.6,48.8,29.86,SSW,194,4.0,5.0,34,0.00,CLR,CLR,0.00,WeatherDisplay:10.34,2013-07-21 15:50:00,
2013-07-21 09:55:00,79.8,48.1,29.86,SSW,195,2.0,2.0,33,0.00,CLR,CLR,0.00,WeatherDisplay:10.34,2013-07-21 15:55:00,
2013-07-21 10:00:00,80.0,49.9,29.86,South,180,1.0,1.0,35,0.00,CLR,CLR,0.00,WeatherDisplay:10.34,2013-07-21 16:00:00,
2013-07-21 10:05:00,80.3,48.6,29.86,South,181,0.0,0.0,33,0.00,CLR,CLR,0.00,WeatherDisplay:10.34,2013-07-21 16:05:00,
2013-07-21 10:10:00,80.6,50.4,29.86,SSE,167,1.0,1.0,35,0.00,CLR,CLR,0.00,WeatherDisplay:10.34,2013-07-21 16:10:00,
2013-07-21 10:15:00,81.0,48.4,29.86,SE,131,4.0,4.0,32,0.00,CLR,CLR,0.00,WeatherDisplay:10.34,2013-07-21 16:15:00,
2013-07-21 10:20:00,81.4,48.7,29.86,ESE,118,3.0,3.0,32,0.00,CLR,CLR,0.00,WeatherDisplay:10.34,2013-07-21 16:20:00,
2013-07-21 10:25:00,81.8,49.9,29.86,East,79,4.0,4.0,33,0.00,CLR,CLR,0.00,WeatherDisplay:10.34,2013-07-21 16:25:00,
2013-07-21 10:30:00,82.1,49.3,29.86,ENE,61,0.0,0.0,32,0.00,CLR,CLR,0.00,WeatherDisplay:10.34,2013-07-21 16:30:00,
2013-07-21 10:35:00,82.4,49.6,29.86,SE,127,4.0,4.0,32,0.00,CLR,CLR,0.00,WeatherDisplay:10.34,2013-07-21 16:35:00,
2013-07-21 10:40:00,82.8,49.1,29.85,NE,52,1.0,1.0,31,0.00,CLR,CLR,0.00,WeatherDisplay:10.34,2013-07-21 16:40:00,
2013-07-21 10:45:00,83.3,47.7,29.85,NE,52,1.0,2.0,29,0.00,CLR,CLR,0.00,WeatherDisplay:10.34,2013-07-21 16:45:00,
2013-07-21 10:50:00,83.9,48.2,29.85,ENE,64,1.0,1.0,29,0.00,CLR,CLR,0.00,WeatherDisplay:10.34,2013-07-21 16:50:00,
2013-07-21 10:55:00,84.3,49.5,29.85,NE,44,2.0,2.0,30,0.00,CLR,CLR,0.00,WeatherDisplay:10.34,2013-07-21 16:55:00,
2013-07-21 11:00:00,84.7,49.8,29.85,East,79,5.0,7.0,30,0.00,CLR,CLR,0.00,WeatherDisplay:10.34,2013-07-21 17:00:00,
2013-07-21 11:05:00,84.9,47.2,29.85,ENE,72,3.0,3.0,27,0.00,CLR,CLR,0.00,WeatherDisplay:10.34,2013-07-21 17:05:00,
2013-07-21 11:10:00,85.1,48.3,29.85,NW,317,3.0,3.0,28,0.00,CLR,CLR,0.00,WeatherDisplay:10.34,2013-07-21 17:10:00,
2013-07-21 11:15:00,85.6,54.0,29.85,West,269,10.0,10.0,34,0.00,CLR,CLR,0.00,WeatherDisplay:10.34,2013-07-21 17:15:00,
2013-07-21 11:20:00,85.7,47.9,29.84,North,360,8.0,8.0,27,0.00,CLR,CLR,0.00,WeatherDisplay:10.34,2013-07-21 17:20:00,
2013-07-21 11:25:00,85.5,45.7,29.84,North,350,8.0,9.0,25,0.00,CLR,CLR,0.00,WeatherDisplay:10.34,2013-07-21 17:25:00,
2013-07-21 11:30:00,85.9,46.0,29.84,NW,310,7.0,7.0,25,0.00,CLR,CLR,0.00,WeatherDisplay:10.34,2013-07-21 17:30:00,
2013-07-21 11:35:00,86.3,44.1,29.84,NW,321,4.0,4.0,23,0.00,CLR,CLR,0.00,WeatherDisplay:10.34,2013-07-21 17:35:00,
2013-07-21 11:40:00,86.3,46.3,29.84,NW,317,12.0,12.0,25,0.00,CLR,CLR,0.00,WeatherDisplay:10.34,2013-07-21 17:40:00,
2013-07-21 11:45:00,85.5,43.5,29.84,NNW,344,13.0,13.0,23,0.00,CLR,CLR,0.00,WeatherDisplay:10.34,2013-07-21 17:45:00,
2013-07-21 11:50:00,85.2,44.3,29.85,North,350,14.0,14.0,24,0.00,CLR,CLR,0.00,WeatherDisplay:10.34,2013-07-21 17:50:00,
2013-07-21 11:55:00,85.0,44.2,29.85,NW,326,14.0,14.0,24,0.00,CLR,CLR,0.00,WeatherDisplay:10.34,2013-07-21 17:55:00,
2013-07-21 12:00:00,84.8,42.9,29.85,NNW,343,13.0,13.0,23,0.00,CLR,CLR,0.00,WeatherDisplay:10.34,2013-07-21 18:00:00,
2013-07-21 12:05:00,85.2,45.4,29.85,NNW,338,11.0,11.0,25,0.00,CLR,CLR,0.00,WeatherDisplay:10.34,2013-07-21 18:05:00,
2013-07-21 12:10:00,85.2,44.3,29.84,North,355,12.0,12.0,24,0.00,CLR,CLR,0.00,WeatherDisplay:10.34,2013-07-21 18:10:00,
2013-07-21 12:15:00,85.5,44.6,29.84,NW,318,9.0,9.0,24,0.00,CLR,CLR,0.00,WeatherDisplay:10.34,2013-07-21 18:15:00,
2013-07-21 12:20:00,85.8,43.7,29.84,North,9,9.0,9.0,23,0.00,CLR,CLR,0.00,WeatherDisplay:10.34,2013-07-21 18:20:00,
2013-07-21 12:25:00,86.4,45.3,29.84,North,11,5.0,7.0,24,0.00,CLR,CLR,0.00,WeatherDisplay:10.34,2013-07-21 18:25:00,
2013-07-21 12:30:00,86.9,46.8,29.84,NNW,345,10.0,10.0,25,0.00,CLR,CLR,0.00,WeatherDisplay:10.34,2013-07-21 18:30:00,
2013-07-21 12:35:00,87.1,41.2,29.84,NNW,343,7.0,7.0,20,0.00,FEW,FEW,0.00,WeatherDisplay:10.34,2013-07-21 18:35:00,
2013-07-21 12:40:00,87.3,45.0,29.84,North,355,8.0,8.0,23,0.00,FEW,FEW,0.00,WeatherDisplay:10.34,2013-07-21 18:40:00,
2013-07-21 12:45:00,87.5,42.8,29.84,NE,51,7.0,7.0,21,0.00,FEW,FEW,0.00,WeatherDisplay:10.34,2013-07-21 18:45:00,
2013-07-21 12:50:00,88.3,44.6,29.83,WNW,300,5.0,5.0,22,0.00,FEW,FEW,0.00,WeatherDisplay:10.34,2013-07-21 18:50:00,
2013-07-21 12:55:00,88.6,49.3,29.83,NNW,339,12.0,12.0,26,0.00,FEW,FEW,0.00,WeatherDisplay:10.34,2013-07-21 18:55:00,
2013-07-21 13:00:00,88.3,42.1,29.83,NNW,329,9.0,12.0,20,0.00,FEW,FEW,0.00,WeatherDisplay:10.34,2013-07-21 19:00:00,
2013-07-21 13:05:00,88.3,44.6,29.83,NNE,33,14.0,24.0,22,0.00,FEW,FEW,0.00,WeatherDisplay:10.34,2013-07-21 19:05:00,
2013-07-21 13:10:00,88.3,46.9,29.83,North,349,12.0,13.0,24,0.00,FEW,FEW,0.00,WeatherDisplay:10.34,2013-07-21 19:10:00,
2013-07-21 13:15:00,88.3,46.9,29.83,NNW,331,15.0,15.0,24,0.00,FEW,FEW,0.00,WeatherDisplay:10.34,2013-07-21 19:15:00,
2013-07-21 13:20:00,88.1,45.6,29.83,North,355,9.0,9.0,23,0.00,FEW,FEW,0.00,WeatherDisplay:10.34,2013-07-21 19:20:00,
2013-07-21 13:25:00,87.4,48.3,29.83,NNE,31,7.0,9.0,26,0.00,FEW,FEW,0.00,WeatherDisplay:10.34,2013-07-21 19:25:00,
2013-07-21 13:30:00,87.5,46.3,29.83,North,360,13.0,13.0,24,0.00,FEW,FEW,0.00,WeatherDisplay:10.34,2013-07-21 19:30:00,
2013-07-21 13:35:00,87.4,45.1,29.83,West,265,8.0,10.0,23,0.00,FEW,FEW,0.00,WeatherDisplay:10.34,2013-07-21 19:35:00,
2013-07-21 13:40:00,88.0,46.7,29.82,NW,310,9.0,9.0,24,0.00,FEW,FEW,0.00,WeatherDisplay:10.34,2013-07-21 19:40:00,
2013-07-21 13:45:00,88.4,42.2,29.82,North,10,4.0,4.0,20,0.00,FEW,FEW,0.00,WeatherDisplay:10.34,2013-07-21 19:45:00,
2013-07-21 13:50:00,89.1,44.1,29.82,WNW,298,0.0,1.0,21,0.00,FEW,FEW,0.00,WeatherDisplay:10.34,2013-07-21 19:50:00,
2013-07-21 13:55:00,89.7,47.0,29.82,NNW,342,10.0,10.0,23,0.00,FEW,FEW,0.00,WeatherDisplay:10.34,2013-07-21 19:55:00,
2013-07-21 14:00:00,89.7,43.3,29.82,NNE,30,6.0,6.0,20,0.00,FEW,FEW,0.00,WeatherDisplay:10.34,2013-07-21 20:00:00,
2013-07-21 14:05:00,89.6,48.0,29.82,NNW,348,10.0,10.0,24,0.00,FEW,FEW,0.00,WeatherDisplay:10.34,2013-07-21 20:05:00,
2013-07-21 14:10:00,89.7,44.6,29.82,WNW,303,8.0,9.0,21,0.00,FEW,FEW,0.00,WeatherDisplay:10.34,2013-07-21 20:10:00,
2013-07-21 14:15:00,90.1,46.1,29.82,WNW,289,5.0,5.0,22,0.00,FEW,FEW,0.00,WeatherDisplay:10.34,2013-07-21 20:15:00,
2013-07-21 14:20:00,90.5,42.6,29.81,WSW,252,7.0,7.0,19,0.00,FEW,FEW,0.00,WeatherDisplay:10.34,2013-07-21 20:20:00,
2013-07-21 14:25:00,90.9,46.8,29.81,NW,317,3.0,3.0,22,0.00,FEW,FEW,0.00,WeatherDisplay:10.34,2013-07-21 20:25:00,
2013-07-21 14:30:00,91.0,41.6,29.81,WNW,298,7.0,7.0,18,0.00,FEW,FEW,0.00,WeatherDisplay:10.34,2013-07-21 20:30:00,
2013-07-21 14:35:00,91.3,40.4,29.81,West,273,6.0,8.0,17,0.00,FEW,FEW,0.00,WeatherDisplay:10.34,2013-07-21 20:35:00,
2013-07-21 14:40:00,91.2,44.5,29.82,WNW,302,7.0,8.0,20,0.00,FEW,FEW,0.00,WeatherDisplay:10.34,2013-07-21 20:40:00,
2013-07-21 14:45:00,91.5,42.0,29.82,WSW,247,5.0,5.0,18,0.00,FEW,FEW,0.00,WeatherDisplay:10.34,2013-07-21 20:45:00,
2013-07-21 14:50:00,91.7,44.9,29.82,NW,309,6.0,6.0,20,0.00,FEW,FEW,0.00,WeatherDisplay:10.34,2013-07-21 20:50:00,
2013-07-21 14:55:00,91.8,47.5,29.82,NW,317,4.0,9.0,22,0.00,FEW,FEW,0.00,WeatherDisplay:10.34,2013-07-21 20:55:00,
2013-07-21 15:00:00,91.7,42.2,29.82,WNW,290,7.0,8.0,18,0.00,FEW,FEW,0.00,WeatherDisplay:10.34,2013-07-21 21:00:00,
2013-07-21 15:05:00,91.9,43.7,29.82,WNW,290,8.0,9.0,19,0.00,FEW,FEW,0.00,WeatherDisplay:10.34,2013-07-21 21:05:00,
2013-07-21 15:10:00,92.0,42.4,29.82,WNW,287,7.0,9.0,18,0.00,FEW,FEW,0.00,WeatherDisplay:10.34,2013-07-21 21:10:00,
2013-07-21 15:15:00,91.8,45.0,29.82,NNW,345,9.0,10.0,20,0.00,FEW,FEW,0.00,WeatherDisplay:10.34,2013-07-21 21:15:00,
2013-07-21 15:20:00,91.4,44.7,29.81,NW,309,7.0,8.0,20,0.00,FEW,FEW,0.00,WeatherDisplay:10.34,2013-07-21 21:20:00,
2013-07-21 15:25:00,90.9,42.9,29.81,NNW,341,13.0,13.0,19,0.00,FEW,FEW,0.00,WeatherDisplay:10.34,2013-07-21 21:25:00,
2013-07-21 15:30:00,90.4,41.1,29.81,North,349,7.0,7.0,18,0.00,FEW,FEW,0.00,WeatherDisplay:10.34,2013-07-21 21:30:00,
2013-07-21 15:35:00,90.6,39.8,29.81,North,360,8.0,9.0,17,0.00,FEW,FEW,0.00,WeatherDisplay:10.34,2013-07-21 21:35:00,
2013-07-21 15:40:00,90.6,42.7,29.81,NW,326,13.0,13.0,19,0.00,FEW,FEW,0.00,WeatherDisplay:10.34,2013-07-21 21:40:00,
2013-07-21 15:45:00,90.9,42.9,29.81,NW,309,9.0,9.0,19,0.00,FEW,FEW,0.00,WeatherDisplay:10.34,2013-07-21 21:45:00,
2013-07-21 15:50:00,90.9,41.5,29.81,NNW,340,8.0,8.0,18,0.00,FEW,FEW,0.00,WeatherDisplay:10.34,2013-07-21 21:50:00,
2013-07-21 15:55:00,90.1,39.4,29.81,NW,325,13.0,13.0,17,0.00,FEW,FEW,0.00,WeatherDisplay:10.34,2013-07-21 21:55:00,
2013-07-21 16:00:00,89.6,44.5,29.81,North,355,12.0,12.0,21,0.00,FEW,FEW,0.00,WeatherDisplay:10.34,2013-07-21 22:00:00,
2013-07-21 16:05:00,89.9,42.1,29.81,NW,319,10.0,10.0,19,0.00,FEW,FEW,0.00,WeatherDisplay:10.34,2013-07-21 22:05:00,
2013-07-21 16:10:00,89.9,42.1,29.81,NNW,340,13.0,13.0,19,0.00,FEW,FEW,0.00,WeatherDisplay:10.34,2013-07-21 22:10:00,
2013-07-21 16:15:00,89.6,43.2,29.81,North,5,9.0,12.0,20,0.00,FEW,FEW,0.00,WeatherDisplay:10.34,2013-07-21 22:15:00,
2013-07-21 16:20:00,90.0,37.8,29.81,North,349,9.0,12.0,16,0.00,FEW,FEW,0.00,WeatherDisplay:10.34,2013-07-21 22:20:00,
2013-07-21 16:25:00,90.3,41.0,29.81,NW,322,8.0,9.0,18,0.00,FEW,FEW,0.00,WeatherDisplay:10.34,2013-07-21 22:25:00,
2013-07-21 16:30:00,90.8,40.0,29.80,North,355,2.0,5.0,17,0.00,FEW,FEW,0.00,WeatherDisplay:10.34,2013-07-21 22:30:00,
2013-07-21 16:35:00,91.3,44.6,29.80,North,355,15.0,20.0,20,0.00,FEW,FEW,0.00,WeatherDisplay:10.34,2013-07-21 22:35:00,
2013-07-21 16:40:00,90.8,40.0,29.80,NW,321,9.0,9.0,17,0.00,FEW,FEW,0.00,WeatherDisplay:10.34,2013-07-21 22:40:00,
2013-07-21 16:45:00,90.4,45.1,29.80,WNW,291,7.0,7.0,21,0.00,FEW,FEW,0.00,WeatherDisplay:10.34,2013-07-21 22:45:00,
2013-07-21 16:50:00,90.4,41.1,29.80,NNW,333,9.0,9.0,18,0.00,FEW,FEW,0.00,WeatherDisplay:10.34,2013-07-21 22:50:00,
2013-07-21 16:55:00,90.3,39.6,29.80,NNW,338,7.0,7.0,17,0.00,FEW,FEW,0.00,WeatherDisplay:10.34,2013-07-21 22:55:00,
2013-07-21 17:00:00,90.3,41.0,29.80,WNW,292,6.0,7.0,18,0.00,FEW,FEW,0.00,WeatherDisplay:10.34,2013-07-21 23:00:00,
2013-07-21 17:05:00,90.2,42.4,29.80,WNW,286,7.0,8.0,19,0.00,FEW,FEW,0.00,WeatherDisplay:10.34,2013-07-21 23:05:00,
2013-07-21 17:10:00,90.2,41.0,29.81,North,360,13.0,13.0,18,0.00,FEW,FEW,0.00,WeatherDisplay:10.34,2013-07-21 23:10:00,
2013-07-21 17:15:00,89.8,42.0,29.81,NNW,327,9.0,10.0,19,0.00,FEW,FEW,0.00,WeatherDisplay:10.34,2013-07-21 23:15:00,
2013-07-21 17:20:00,89.6,40.5,29.80,West,263,9.0,10.0,18,0.00,FEW,FEW,0.00,WeatherDisplay:10.34,2013-07-21 23:20:00,
2013-07-21 17:25:00,89.6,40.5,29.80,NNW,328,5.0,7.0,18,0.00,FEW,FEW,0.00,WeatherDisplay:10.34,2013-07-21 23:25:00,
2013-07-21 17:30:00,89.6,41.9,29.80,NNW,341,11.0,12.0,19,0.00,FEW,FEW,0.00,WeatherDisplay:10.34,2013-07-21 23:30:00,
2013-07-21 17:35:00,89.3,43.0,29.80,NNW,333,5.0,5.0,20,0.00,FEW,FEW,0.00,WeatherDisplay:10.34,2013-07-21 23:35:00,
2013-07-21 17:40:00,89.4,43.0,29.80,NW,306,2.0,8.0,20,0.00,FEW,FEW,0.00,WeatherDisplay:10.34,2013-07-21 23:40:00,
2013-07-21 17:45:00,89.6,40.5,29.80,NNW,330,4.0,4.0,18,0.00,FEW,FEW,0.00,WeatherDisplay:10.34,2013-07-21 23:45:00,
2013-07-21 17:50:00,89.7,43.3,29.80,NW,321,7.0,9.0,20,0.00,FEW,FEW,0.00,WeatherDisplay:10.34,2013-07-21 23:50:00,
2013-07-21 17:55:00,89.8,44.7,29.80,NW,325,8.0,10.0,21,0.00,FEW,FEW,0.00,WeatherDisplay:10.34,2013-07-21 23:55:00,
2013-07-21 18:00:00,89.6,44.5,29.80,North,350,5.0,5.0,21,0.00,FEW,FEW,0.00,WeatherDisplay:10.34,2013-07-22 00:00:00,
2013-07-21 18:05:00,89.5,46.8,29.80,NW,322,5.0,5.0,23,0.00,FEW,FEW,0.00,WeatherDisplay:10.34,2013-07-22 00:05:00,
2013-07-21 18:10:00,88.8,45.0,29.80,NW,321,9.0,9.0,22,0.00,FEW,FEW,0.00,WeatherDisplay:10.34,2013-07-22 00:10:00,
2013-07-21 18:15:00,87.9,45.5,29.80,NNW,345,11.0,11.0,23,0.00,FEW,FEW,0.00,WeatherDisplay:10.34,2013-07-22 00:15:00,
2013-07-21 18:20:00,87.3,43.8,29.80,NNW,342,11.0,12.0,22,0.00,FEW,FEW,0.00,WeatherDisplay:10.34,2013-07-22 00:20:00,
2013-07-21 18:25:00,86.6,44.4,29.80,NNW,345,11.0,12.0,23,0.00,FEW,FEW,0.00,WeatherDisplay:10.34,2013-07-22 00:25:00,
2013-07-21 18:30:00,86.3,45.3,29.80,NNW,336,8.0,9.0,24,0.00,FEW,FEW,0.00,WeatherDisplay:10.34,2013-07-22 00:30:00,
2013-07-21 18:35:00,86.1,47.2,29.80,NW,316,6.0,7.0,26,0.00,FEW,FEW,0.00,WeatherDisplay:10.34,2013-07-22 00:35:00,
2013-07-21 18:40:00,86.1,46.2,29.80,NNW,347,8.0,9.0,25,0.00,FEW,FEW,0.00,WeatherDisplay:10.34,2013-07-22 00:40:00,
2013-07-21 18:45:00,85.7,46.9,29.80,NW,318,5.0,5.0,26,0.00,FEW,FEW,0.00,WeatherDisplay:10.34,2013-07-22 00:45:00,
2013-07-21 18:50:00,85.7,44.7,29.80,NW,307,6.0,6.0,24,0.00,FEW,FEW,0.00,WeatherDisplay:10.34,2013-07-22 00:50:00,
2013-07-21 18:55:00,85.7,45.8,29.80,North,349,9.0,10.0,25,0.00,FEW,FEW,0.00,WeatherDisplay:10.34,2013-07-22 00:55:00,
2013-07-21 19:00:00,85.3,45.5,29.80,NNW,338,9.0,9.0,25,0.00,FEW,FEW,0.00,WeatherDisplay:10.34,2013-07-22 01:00:00,
2013-07-21 19:05:00,84.5,45.8,29.80,NNW,334,10.0,10.0,26,0.00,FEW,FEW,0.00,WeatherDisplay:10.34,2013-07-22 01:05:00,
2013-07-21 19:10:00,83.8,45.3,29.79,WNW,298,5.0,5.0,26,0.00,FEW,FEW,0.00,WeatherDisplay:10.34,2013-07-22 01:10:00,
2013-07-21 19:15:00,83.6,47.0,29.79,NNW,333,4.0,5.0,28,0.00,FEW,FEW,0.00,WeatherDisplay:10.34,2013-07-22 01:15:00,
2013-07-21 19:20:00,83.4,42.8,29.80,NNW,331,7.0,8.0,24,0.00,SCT,SCT,0.00,WeatherDisplay:10.34,2013-07-22 01:20:00,
2013-07-21 19:25:00,83.5,42.9,29.80,West,273,5.0,7.0,24,0.00,SCT,SCT,0.00,WeatherDisplay:10.34,2013-07-22 01:25:00,
2013-07-21 19:30:00,83.3,43.8,29.80,North,355,6.0,7.0,25,0.00,SCT,SCT,0.00,WeatherDisplay:10.34,2013-07-22 01:30:00,
2013-07-21 19:35:00,82.9,43.5,29.80,WNW,295,5.0,7.0,25,0.00,SCT,SCT,0.00,WeatherDisplay:10.34,2013-07-22 01:35:00,
2013-07-21 19:41:00,82.8,42.3,29.80,WNW,300,5.0,7.0,24,0.00,SCT,SCT,0.00,WeatherDisplay:10.34,2013-07-22 01:41:00,
2013-07-21 19:46:00,82.7,42.2,29.80,WNW,298,3.0,5.0,24,0.00,SCT,SCT,0.00,WeatherDisplay:10.34,2013-07-22 01:46:00,
2013-07-21 19:51:00,82.4,42.0,29.81,WNW,301,6.0,7.0,24,0.00,SCT,SCT,0.00,WeatherDisplay:10.34,2013-07-22 01:51:00,
2013-07-21 19:56:00,82.1,40.6,29.81,NW,315,5.0,10.0,23,0.00,SCT,SCT,0.00,WeatherDisplay:10.34,2013-07-22 01:56:00,
2013-07-21 20:01:00,81.6,42.4,29.81,WNW,290,6.0,9.0,25,0.00,SCT,SCT,0.00,WeatherDisplay:10.34,2013-07-22 02:01:00,
2013-07-21 20:06:00,81.2,42.0,29.81,WNW,295,3.0,3.0,25,0.00,SCT,SCT,0.00,WeatherDisplay:10.34,2013-07-22 02:06:00,
2013-07-21 20:11:00,80.9,42.8,29.81,NW,307,3.0,5.0,26,0.00,BKN,BKN,0.00,WeatherDisplay:10.34,2013-07-22 02:11:00,
2013-07-21 20:16:00,80.5,42.4,29.82,NW,304,4.0,5.0,26,0.00,OVC,OVC,0.00,WeatherDisplay:10.34,2013-07-22 02:16:00,
2013-07-21 20:17:00,80.4,43.3,29.82,WNW,300,4.0,5.0,27,0.00,OVC,OVC,0.00,WeatherDisplay:10.34,2013-07-22 02:17:00,
2013-07-21 20:22:00,79.6,42.7,29.82,WNW,291,5.0,7.0,27,0.00,OVC,OVC,0.00,WeatherDisplay:10.34,2013-07-22 02:22:00,
2013-07-21 20:27:00,78.9,43.0,29.82,WNW,288,3.0,7.0,28,0.00,OVC,OVC,0.00,WeatherDisplay:10.34,2013-07-22 02:27:00,
2013-07-21 20:32:00,78.5,42.7,29.82,WNW,302,6.0,8.0,28,0.00,OVC,OVC,0.00,WeatherDisplay:10.34,2013-07-22 02:32:00,
2013-07-21 20:37:00,78.0,44.0,29.82,NNE,22,4.0,5.0,30,0.00,OVC,OVC,0.00,WeatherDisplay:10.34,2013-07-22 02:37:00,
2013-07-21 20:42:00,77.5,42.7,29.83,NNE,22,4.0,5.0,29,0.00,OVC,OVC,0.00,WeatherDisplay:10.34,2013-07-22 02:42:00,
2013-07-21 20:47:00,77.3,41.6,29.83,North,9,1.0,2.0,28,0.00,OVC,OVC,0.00,WeatherDisplay:10.34,2013-07-22 02:47:00,
2013-07-21 20:52:00,77.0,40.4,29.83,NNE,14,3.0,5.0,27,0.00,OVC,OVC,0.00,WeatherDisplay:10.34,2013-07-22 02:52:00,
2013-07-21 20:57:00,76.9,40.4,29.83,NNW,346,2.0,3.0,27,0.00,OVC,OVC,0.00,WeatherDisplay:10.34,2013-07-22 02:57:00,
2013-07-21 21:02:00,76.8,40.3,29.84,NNW,327,6.0,7.0,27,0.00,,,0.00,WeatherDisplay:10.34,2013-07-22 03:02:00,
2013-07-21 21:07:00,76.6,41.0,29.84,NE,52,5.0,7.0,28,0.00,,,0.00,WeatherDisplay:10.34,2013-07-22 03:07:00,
2013-07-21 21:12:00,76.3,40.8,29.84,NNE,13,2.0,3.0,28,0.00,,,0.00,WeatherDisplay:10.34,2013-07-22 03:12:00,
2013-07-21 21:17:00,76.2,40.7,29.84,NNW,340,4.0,5.0,28,0.00,,,0.00,WeatherDisplay:10.34,2013-07-22 03:17:00,
2013-07-21 21:22:00,75.9,41.3,29.85,NNW,338,2.0,2.0,29,0.00,,,0.00,WeatherDisplay:10.34,2013-07-22 03:22:00,
2013-07-21 21:27:00,75.7,41.2,29.85,NNW,339,2.0,2.0,29,0.00,,,0.00,WeatherDisplay:10.34,2013-07-22 03:27:00,
2013-07-21 21:32:00,75.4,40.9,29.85,NNW,339,1.0,2.0,29,0.00,,,0.00,WeatherDisplay:10.34,2013-07-22 03:32:00,
2013-07-21 21:37:00,75.0,40.6,29.85,NNW,339,0.0,0.0,29,0.00,,,0.00,WeatherDisplay:10.34,2013-07-22 03:37:00,
2013-07-21 21:42:00,74.7,40.3,29.85,NNW,339,0.0,0.0,29,0.00,,,0.00,WeatherDisplay:10.34,2013-07-22 03:42:00,
2013-07-21 21:47:00,74.4,40.9,29.85,NNE,15,2.0,2.0,30,0.00,,,0.00,WeatherDisplay:10.34,2013-07-22 03:47:00,
2013-07-21 21:52:00,74.1,40.7,29.86,North,360,1.0,2.0,30,0.00,,,0.00,WeatherDisplay:10.34,2013-07-22 03:52:00,
2013-07-21 21:57:00,73.7,40.3,29.86,WNW,302,2.0,2.0,30,0.00,,,0.00,WeatherDisplay:10.34,2013-07-22 03:57:00,
2013-07-21 22:01:00,73.5,41.0,29.86,West,275,1.0,2.0,31,0.00,,,0.00,WeatherDisplay:10.34,2013-07-22 04:01:00,
2013-07-21 22:02:00,73.4,40.9,29.86,West,275,0.0,1.0,31,0.00,,,0.00,WeatherDisplay:10.34,2013-07-22 04:02:00,
2013-07-21 22:04:00,73.2,40.7,29.86,West,275,0.0,1.0,31,0.00,,,0.00,WeatherDisplay:10.34,2013-07-22 04:04:00,
2013-07-21 22:09:00,72.8,40.4,29.86,West,275,0.0,0.0,31,0.00,,,0.00,WeatherDisplay:10.34,2013-07-22 04:09:00,
2013-07-21 22:14:00,72.5,41.0,29.87,West,275,0.0,1.0,32,0.00,,,0.00,WeatherDisplay:10.34,2013-07-22 04:14:00,
2013-07-21 22:19:00,72.2,40.7,29.87,West,275,0.0,0.0,32,0.00,,,0.00,WeatherDisplay:10.34,2013-07-22 04:19:00,
2013-07-21 22:24:00,71.9,41.2,29.87,West,275,0.0,0.0,33,0.00,,,0.00,WeatherDisplay:10.34,2013-07-22 04:24:00,
2013-07-21 22:29:00,71.5,40.9,29.87,West,275,1.0,1.0,33,0.00,,,0.00,WeatherDisplay:10.34,2013-07-22 04:29:00,
2013-07-21 22:34:00,71.1,40.5,29.87,West,275,0.0,1.0,33,0.00,,,0.00,WeatherDisplay:10.34,2013-07-22 04:34:00,
2013-07-21 22:39:00,70.6,41.6,29.87,West,275,0.0,0.0,35,0.00,,,0.00,WeatherDisplay:10.34,2013-07-22 04:39:00,
2013-07-21 22:44:00,70.1,42.6,29.88,West,275,0.0,2.0,37,0.00,,,0.00,WeatherDisplay:10.34,2013-07-22 04:44:00,
2013-07-21 22:49:00,69.7,42.3,29.88,West,275,2.0,2.0,37,0.00,,,0.00,WeatherDisplay:10.34,2013-07-22 04:49:00,
2013-07-21 22:54:00,69.3,43.3,29.88,West,275,1.0,1.0,39,0.00,,,0.00,WeatherDisplay:10.34,2013-07-22 04:54:00,
2013-07-21 22:59:00,68.9,42.9,29.88,West,275,3.0,3.0,39,0.00,,,0.00,WeatherDisplay:10.34,2013-07-22 04:59:00,
2013-07-21 23:04:00,68.5,43.2,29.88,WSW,251,4.0,4.0,40,0.00,,,0.00,WeatherDisplay:10.34,2013-07-22 05:04:00,
2013-07-21 23:09:00,68.1,44.1,29.88,WSW,250,0.0,0.0,42,0.00,,,0.00,WeatherDisplay:10.34,2013-07-22 05:09:00,
2013-07-21 23:14:00,67.9,44.6,29.88,WSW,250,0.0,0.0,43,0.00,,,0.00,WeatherDisplay:10.34,2013-07-22 05:14:00,
2013-07-21 23:19:00,67.5,44.8,29.88,WSW,251,3.0,3.0,44,0.00,,,0.00,WeatherDisplay:10.34,2013-07-22 05:19:00,
2013-07-21 23:24:00,67.1,45.0,29.89,WSW,250,1.0,1.0,45,0.00,,,0.00,WeatherDisplay:10.34,2013-07-22 05:24:00,
2013-07-21 23:29:00,66.8,45.9,29.89,WSW,250,1.0,1.0,47,0.00,,,0.00,WeatherDisplay:10.34,2013-07-22 05:29:00,
2013-07-21 23:34:00,66.4,46.1,29.89,WSW,244,5.0,5.0,48,0.00,,,0.00,WeatherDisplay:10.34,2013-07-22 05:34:00,
2013-07-21 23:39:00,65.9,43.9,29.89,WSW,244,7.0,8.0,45,0.00,,,0.00,WeatherDisplay:10.34,2013-07-22 05:39:00,
2013-07-21 23:44:00,65.8,44.4,29.88,WSW,242,4.0,5.0,46,0.00,,,0.00,WeatherDisplay:10.34,2013-07-22 05:44:00,
2013-07-21 23:49:00,65.9,43.9,29.88,WSW,254,6.0,6.0,45,0.00,,,0.00,WeatherDisplay:10.34,2013-07-22 05:49:00,
2013-07-21 23:54:00,65.9,45.6,29.88,WSW,253,5.0,5.0,48,0.00,,,0.00,WeatherDisplay:10.34,2013-07-22 05:54:00,
2013-07-21 23:59:00,65.9,45.6,29.88,WSW,246,6.0,6.0,48,0.00,,,0.00,WeatherDisplay:10.34,2013-07-22 05:59:00,